Location: North Runcton
(52.7000°N, 0.4333°E)
Time: 01:09:06
(UTC+00:00)

KORONAS-FOTON - Pass Details

Date: 19 May 2025
Orbit: 447 x 464 km, 82.4° (Epoch: 18 June)

Event Time Altitude Azimuth Distance (km) Brightness Sun altitude
Exits shadow 23:23:11 43° 190° (S) 655 3.8 -17.0°
Maximum altitude 23:24:14 90° 237° (WSW) 465 3.4 -17.0°
Drops below altitude 10° 23:27:45 10° 11° (N) 1,605 7.4 -17.1°
Sets 23:29:49 0° 11° (NNE) 2,480 8.7 -17.1°
